Main page
METAR-TAF:

METAR-TAF

Airports :

O'Neill Municipal Airport

O'Neill, Nebraska, United States

latitude: 42-28N, longitude: 098-41W, elevation: 2030 ft

Current weather observation

The report was made 24 minutes ago, at 16:15 UTC
Wind 12 mph from the North with gusts up to 22 mph
Temperature 72°F
Humidity 41%
Pressure 30.14 in. Hg
Visibility: 10 miles
Clear sky

METAR: KONL 281615Z AUTO 36010G19KT 10SM CLR 22/08 A3014 RMK AO2 T02220084

Time: 11:39 (16:39 UTC)


TAF: missing

Weather observations and forecasts of more than 4000 airports (METAR and TAF reports).

The available stations are represented by yellow and red dots on the map.

Hover mouse over dot to see the name of the station.

Then click to see weather observations and forecasts.

To change the map : click on the green buttons with a black cross to zoom in, on the green button with a dash to zoom out, or on the green arrows for adjacent maps.


METAR-TAF: